Location: Boissi�res
(45.2500°N, 2.3667°E)
Time: 12:26:57
(UTC+00:00)

Envisat - Visible Passes

Search period start: 24 September 2021 00:00
Search period end: 04 October 2021 00:00
Orbit: 764 x 766 km, 98.2° (Epoch: 23 September)

Date Brightness Start Highest point End Pass type
(mag) Time Alt. Az. Time Alt. Az. Time Alt. Az.
24 Sep 4.3 04:36:25 10° NNE 04:41:17 44° E 04:46:08 10° S visible
25 Sep 5.6 04:00:19 10° NE 04:04:10 21° E 04:07:59 10° SE visible
26 Sep 3.3 05:01:35 10° NNE 05:06:42 76° ESE 05:11:46 10° S visible
27 Sep 4.7 04:25:03 10° NNE 04:29:43 35° E 04:34:21 10° SSE visible
28 Sep 5.9 03:49:16 10° NE 03:52:32 17° E 03:55:47 10° SE visible
29 Sep 3.6 04:50:07 10° NNE 04:55:10 61° E 05:00:11 10° S visible
30 Sep 5.1 04:13:45 10° NE 04:18:08 28° E 04:22:29 10° SSE visible
01 Oct 6.0 03:38:27 10° ENE 03:40:53 13° E 03:43:17 10° ESE visible
01 Oct 3.0 05:15:24 10° NNE 05:20:31 81° WNW 05:25:36 10° SSW visible
02 Oct 4.1 04:38:41 10° NNE 04:43:37 48° E 04:48:30 10° S visible
03 Oct 5.5 04:02:31 10° NE 04:06:31 23° E 04:10:29 10° SE visible
